Change the Weather History Date:

Thursday, September 5, 2013

  Actual Average Record
Temperature  
Mean Temperature 54 °F 52 °F  
Max Temperature 57 °F 59 °F 70 °F (1985)
Min Temperature 50 °F 46 °F 35 °F (1976)
Degree Days  
Heating Degree Days 11 13  
Month to date heating degree days 44 61  
Since 1 July heating degree days 523 691  
Cooling Degree Days 0    
Month to date cooling degree days 0  
Year to date cooling degree days 6  
Growing Degree Days 3 (Base 50)    
Moisture  
Dew Point 46 °F    
Average Humidity 0    
Maximum Humidity 0    
Minimum Humidity 0    
Precipitation  
Precipitation T in 0.21 in 1.59 in (2011)
Month to date precipitation 0.46 0.96  
Year to date precipitation 40.37 47.75  
Snow  
Snow 0.00 in 0.00 in 0.00 in (2014)
Month to date snowfall 0.0 0.0  
Since 1 July snowfall 0.0 0.0  
Since 1 September snowfall 0.0 0.0  
Snow Depth 0.00 in    
Sea Level Pressure  
Sea Level Pressure 29.91 in    
Wind  
Wind Speed 8 mph (East)    
Max Wind Speed 17 mph    
Max Gust Speed 21 mph    
Visibility 10 miles    
Events      
T = Trace of Precipitation, MM = Missing Value Source: NWS Daily Summary

Daily Weather History Graph

Daily Weather History Graph

Search for Another Location

Airport or City:

Trip Planner

Search our weather history database for the weather conditions in past years. The results will help you decide how hot, cold, wet, or windy it might be!

Date:

Astronomy

Sep. 05, 2013 Rise Set
Actual Time 7:19 AM AKDT 8:55 PM AKDT
Civil Twilight 6:39 AM AKDT 9:36 PM AKDT
Nautical Twilight 5:47 AM AKDT 10:26 PM AKDT
Astronomical Twilight 4:48 AM AKDT 11:25 PM AKDT
Moon 7:58 AM AKDT (9/5) 8:30 PM AKDT (9/5)
Length of Visible Light 14h 57m
Length of Day
13h 35m
New Moon, 0% of the Moon is Illuminated
Sep 5
New Moon
Sep 12
First Quarter
Sep 19
Full
Sep 26
Last Quarter
Oct 4
New

Hourly Weather History & Observations

Time (AKDT) Temp. Dew Point Humidity Pressure Visibility Wind Dir Wind Speed Gust Speed Precip Events Conditions
12:53 AM 51.1 °F 42.1 °F 71% 29.84 in 10.0 mi SW 4.6 mph - N/A   Scattered Clouds
1:53 AM 50.0 °F 43.0 °F 77% 29.86 in 10.0 mi Calm Calm - N/A   Scattered Clouds
2:53 AM 50.0 °F 44.1 °F 80% 29.86 in 10.0 mi West 3.5 mph - N/A   Overcast
3:53 AM 51.1 °F 44.1 °F 77% 29.87 in 10.0 mi Calm Calm - N/A   Overcast
4:53 AM 53.1 °F 45.0 °F 74% 29.88 in 10.0 mi ENE 4.6 mph - N/A   Overcast
5:53 AM 53.1 °F 45.0 °F 74% 29.88 in 10.0 mi ESE 6.9 mph - N/A   Overcast
6:53 AM 53.1 °F 46.0 °F 77% 29.89 in 10.0 mi SE 8.1 mph - N/A   Overcast
7:53 AM 53.1 °F 46.9 °F 80% 29.90 in 10.0 mi SE 8.1 mph - N/A   Mostly Cloudy
8:53 AM 53.1 °F 46.0 °F 77% 29.92 in 10.0 mi ESE 4.6 mph - N/A   Mostly Cloudy
9:53 AM 54.0 °F 46.0 °F 75% 29.93 in 10.0 mi SE 10.4 mph - N/A   Mostly Cloudy
10:53 AM 53.1 °F 48.0 °F 83% 29.94 in 10.0 mi East 10.4 mph - 0.00 in   Mostly Cloudy
11:53 AM 55.0 °F 46.0 °F 72% 29.95 in 10.0 mi ESE 8.1 mph - N/A   Overcast
12:53 PM 55.9 °F 46.0 °F 69% 29.96 in 10.0 mi SSE 8.1 mph - N/A   Overcast
1:53 PM 53.1 °F 46.9 °F 80% 29.97 in 10.0 mi East 9.2 mph - N/A   Overcast
2:53 PM 55.9 °F 46.0 °F 69% 29.96 in 10.0 mi SE 11.5 mph - N/A   Overcast
4:53 PM 54.0 °F 48.0 °F 80% 29.96 in 10.0 mi East 8.1 mph - N/A   Overcast
5:53 PM 54.0 °F 48.0 °F 80% 29.95 in 10.0 mi ENE 9.2 mph - N/A   Overcast
6:53 PM 55.0 °F 46.0 °F 72% 29.94 in 10.0 mi ENE 5.8 mph - N/A   Overcast
7:53 PM 54.0 °F 48.0 °F 80% 29.93 in 10.0 mi NE 4.6 mph - N/A   Overcast
8:53 PM 53.1 °F 46.9 °F 80% 29.93 in 10.0 mi NE 9.2 mph - N/A   Overcast
9:53 PM 53.1 °F 46.0 °F 77% 29.91 in 10.0 mi NE 9.2 mph - N/A   Overcast
10:53 PM 53.1 °F 48.0 °F 83% 29.89 in 10.0 mi NE 15.0 mph - N/A   Overcast
11:53 PM 53.1 °F 48.0 °F 83% 29.87 in 10.0 mi NE 12.7 mph - N/A   Overcast